Weather History for KJMS - January, 2013

Change the Weather History Date:

Wednesday, January 16, 2013

  Actual Average Record
Temperature  
Mean Temperature 19 °F 10 °F  
Max Temperature 37 °F 20 °F 50 °F (1942)
Min Temperature 0 °F 0 °F -33 °F (1917)
Degree Days  
Heating Degree Days 46 55  
Month to date heating degree days 804 878  
Since 1 July heating degree days 4452 4538  
Cooling Degree Days 0 0  
Month to date cooling degree days 0 0  
Year to date cooling degree days 0 0  
Moisture  
Dew Point 15 °F    
Average Humidity 79    
Maximum Humidity 92    
Minimum Humidity 66    
Precipitation  
Precipitation 0.01 in 0.02 in 0.26 in (1967)
Month to date precipitation 0.01 0.26  
Year to date precipitation 0.01 0.26  
Sea Level Pressure  
Sea Level Pressure 29.90 in    
Wind  
Wind Speed 10 mph (NNE)    
Max Wind Speed 25 mph    
Max Gust Speed 33 mph    
Visibility 7 miles    
Events Fog , Snow    
T = Trace of Precipitation, MM = Missing Value Source: NWS Daily Summary

Daily Weather History Graph

Daily Weather History Graph

Search for Another Location

Airport or City:

Trip Planner

Search our weather history database for the weather conditions in past years. The results will help you decide how hot, cold, wet, or windy it might be!

Date:

Astronomy

Jan. 16, 2013 Rise Set
Actual Time 8:14 AM CST 5:14 PM CST
Civil Twilight 7:40 AM CST 5:48 PM CST
Nautical Twilight 7:03 AM CST 6:26 PM CST
Astronomical Twilight 6:26 AM CST 7:02 PM CST
Moon 10:27 AM CST (1/16) 11:34 PM CST (1/16)
Length of Visible Light 10h 07m
Length of Day
8h 59m
Waxing Crescent, 28% of the Moon is Illuminated
Jan 16
Waxing Crescent
Jan 18
First Quarter
Jan 26
Full
Feb 3
Last Quarter
Feb 10
New

Hourly Weather History & Observations

Time (CST) Temp. Windchill Dew Point Humidity Pressure Visibility Wind Dir Wind Speed Gust Speed Precip Events Conditions
12:41 AM 37.4 °F 26.1 °F 32.0 °F 81% 29.56 in 10.0 mi WNW 24.2 mph 29.9 mph N/A   Overcast
12:56 AM 37.0 °F 26.4 °F 32.0 °F 82% 29.62 in 10.0 mi WNW 20.7 mph - N/A   Scattered Clouds
1:56 AM 36.0 °F 25.6 °F 30.9 °F 82% 29.67 in 10.0 mi NW 18.4 mph 25.3 mph N/A   Mostly Cloudy
2:56 AM 36.0 °F 27.5 °F 30.9 °F 82% 29.69 in 10.0 mi WNW 12.7 mph - N/A   Mostly Cloudy
3:10 AM 35.6 °F 27.1 °F 32.0 °F 87% 29.63 in 10.0 mi WNW 12.7 mph - N/A   Overcast
3:23 AM 35.6 °F 27.1 °F 32.0 °F 87% 29.62 in 10.0 mi WNW 12.7 mph - N/A   Overcast
3:56 AM 36.0 °F 28.0 °F 32.0 °F 86% 29.69 in 10.0 mi WNW 11.5 mph - N/A   Mostly Cloudy
4:03 AM 35.6 °F 27.1 °F 32.0 °F 87% 29.64 in 10.0 mi WNW 12.7 mph - N/A   Mostly Cloudy
4:56 AM 36.0 °F 26.7 °F 32.0 °F 86% 29.70 in 10.0 mi WNW 15.0 mph - N/A   Overcast
5:43 AM 33.8 °F 26.4 °F 30.2 °F 87% 29.65 in 8.0 mi NNE 9.2 mph - N/A   Overcast
5:56 AM 32.0 °F 24.2 °F 30.0 °F 92% 29.72 in 10.0 mi NNE 9.2 mph - N/A   Overcast
6:49 AM 28.4 °F 19.7 °F 26.6 °F 93% 29.66 in 2.5 mi ENE 9.2 mph - 0.00 in Snow Light Snow
6:56 AM 28.9 °F 19.8 °F 26.1 °F 89% 29.74 in 2.5 mi NE 10.4 mph - 0.00 in Snow Light Snow
7:03 AM 28.4 °F 19.7 °F 26.6 °F 93% 29.67 in 4.0 mi NE 9.2 mph - 0.00 in Snow Light Snow
7:29 AM 26.6 °F 14.3 °F 24.8 °F 93% 29.70 in 2.0 mi NNE 16.1 mph - 0.00 in Snow Light Snow
7:37 AM 26.6 °F 13.8 °F 21.2 °F 80% 29.70 in 2.0 mi NNE 17.3 mph - 0.00 in Snow Light Snow
7:56 AM 25.0 °F 14.8 °F 21.9 °F 88% 29.78 in 1.8 mi NNE 10.4 mph - 0.00 in Snow Light Snow
8:34 AM 24.8 °F 14.6 °F 21.2 °F 86% 29.73 in 0.5 mi NNE 10.4 mph - 0.00 in Fog , Snow Snow
8:48 AM 24.8 °F 14.0 °F 21.2 °F 86% 29.74 in 1.0 mi NNE 11.5 mph - 0.01 in Snow Light Snow
8:56 AM 24.1 °F 13.1 °F 21.0 °F 88% 29.81 in 1.2 mi NNE 11.5 mph - 0.01 in Snow Light Snow
9:03 AM 21.2 °F 7.3 °F 17.6 °F 86% 29.77 in 1.0 mi ENE 16.1 mph - 0.00 in Snow Light Snow
9:05 AM 21.2 °F 7.8 °F 17.6 °F 86% 29.77 in 0.8 mi ENE 15.0 mph - 0.00 in Snow Light Snow
9:10 AM 19.4 °F 6.0 °F 17.6 °F 93% 29.77 in 0.8 mi ENE 13.8 mph - 0.00 in Snow Light Snow
9:26 AM 19.4 °F 5.5 °F 15.8 °F 86% 29.78 in 1.0 mi ENE 15.0 mph - 0.00 in Snow Light Snow
9:56 AM 18.0 °F 3.6 °F 14.0 °F 84% 29.89 in 1.5 mi NE 15.0 mph - 0.00 in Snow Light Snow
10:07 AM 17.6 °F 5.0 °F 14.0 °F 86% 29.83 in 1.8 mi ENE 11.5 mph - 0.00 in Snow Light Snow
10:17 AM 17.6 °F 2.7 °F 12.2 °F 79% 29.84 in 2.0 mi NE 16.1 mph - 0.00 in Snow Light Snow
10:26 AM 17.6 °F 3.2 °F 12.2 °F 79% 29.85 in 6.0 mi NE 15.0 mph - 0.00 in Snow Light Snow
10:47 AM 17.6 °F 3.7 °F 12.2 °F 79% 29.87 in 2.5 mi NE 13.8 mph - 0.00 in Snow Light Snow
10:56 AM 17.1 °F 3.6 °F 12.9 °F 84% 29.94 in 6.0 mi NE 12.7 mph - 0.00 in Snow Light Snow
11:56 AM 17.1 °F 3.6 °F 10.0 °F 74% 29.99 in 10.0 mi NE 12.7 mph - 0.00 in   Overcast
12:31 PM 15.8 °F 0.9 °F 8.6 °F 73% 29.95 in 2.5 mi NE 15.0 mph - 0.00 in Snow Light Snow
12:46 PM 14.0 °F -2.0 °F 8.6 °F 79% 29.96 in 6.0 mi NE 16.1 mph - 0.00 in Snow Light Snow
1:08 PM 14.0 °F -0.2 °F 8.6 °F 79% 29.97 in 7.0 mi NNE 12.7 mph - 0.00 in Snow Light Snow
1:43 PM 12.2 °F -2.5 °F 6.8 °F 79% 29.99 in 10.0 mi NNE 12.7 mph - 0.00 in   Overcast
1:56 PM 12.9 °F -0.9 °F 3.9 °F 67% 30.07 in 10.0 mi NNE 11.5 mph - 0.00 in   Mostly Cloudy
2:56 PM 10.9 °F -5.4 °F 3.0 °F 70% 30.13 in 10.0 mi NNE 15.0 mph - N/A   Clear
3:56 PM 10.0 °F -2.9 °F 1.0 °F 67% 30.16 in 10.0 mi NNE 9.2 mph - N/A   Clear
4:56 PM 7.0 °F -1.7 °F -0.0 °F 73% 30.21 in 10.0 mi North 4.6 mph - N/A   Clear
5:56 PM 1.9 °F -7.6 °F -2.9 °F 80% 30.24 in 10.0 mi NNE 4.6 mph - N/A   Mostly Cloudy
6:34 PM 1.4 °F - -2.2 °F 85% 30.16 in 10.0 mi Calm Calm - N/A   Scattered Clouds
6:56 PM 3.9 °F - -2.0 °F 76% 30.27 in 10.0 mi Calm Calm - N/A   Clear
7:56 PM 3.9 °F -5.3 °F -2.0 °F 76% 30.30 in 10.0 mi SSW 4.6 mph - N/A   Overcast
8:56 PM 3.9 °F - -0.9 °F 80% 30.29 in 10.0 mi Calm Calm - N/A   Overcast
9:56 PM 3.0 °F -4.4 °F -2.0 °F 80% 30.28 in 10.0 mi ESE 3.5 mph - N/A   Mostly Cloudy
10:05 PM 3.2 °F - -2.2 °F 78% 30.18 in 10.0 mi Calm Calm - N/A   Scattered Clouds
10:41 PM 3.2 °F - -0.4 °F 85% 30.20 in 10.0 mi Calm Calm - N/A   Overcast
10:56 PM 3.9 °F - -0.9 °F 80% 30.31 in 10.0 mi Calm Calm - N/A   Overcast
11:43 PM 5.0 °F -9.1 °F -0.4 °F 78% 30.20 in 10.0 mi South 9.2 mph - N/A   Overcast
11:56 PM 5.0 °F -9.1 °F -0.0 °F 80% 30.31 in 10.0 mi South 9.2 mph - N/A   Overcast